When you browse on this site, cookies collect data to enhance your experience and personalize the content and advertising you see.
Visit our Privacy Policy to learn more. By continuing to use the site, you agree to this use of cookies and data.
  • In Portugal
  • List of Countries
  • For 7 days
  • Water Temperature
  • Satellite Maps
  • Weather Map
  • Weather Widgets
  • user-avatar
    Login

    Hourly Weather Gwozdzianka

    Today, 20 March, Wednesday

    Time Temperature Precipitation Wind Pressure Humidity
    00:00 +2°C° 0 mm 1 mps 741 mmHg 77%
    01:00 +1°C° 0 mm 1 mps 741 mmHg 77%
    02:00 +1°C° 0 mm 1 mps 741 mmHg 78%
    03:00 +1°C° 0 mm 1 mps 741 mmHg 79%
    04:00 +1°C° 0 mm 1 mps 742 mmHg 81%
    05:00 +1°C° 0 mm 1 mps 742 mmHg 78%
    06:00 +2°C° 0 mm 1 mps 742 mmHg 76%
    07:00 +2°C° 0 mm 1 mps 743 mmHg 70%
    08:00 +4°C° 0 mm 1 mps 743 mmHg 65%
    09:00 +4°C° 0 mm 2 mps 743 mmHg 60%
    10:00 +5°C° 0 mm 2 mps 743 mmHg 55%
    11:00 +6°C° 0 mm 2 mps 743 mmHg 52%
    12:00 +6°C° 0 mm 2 mps 743 mmHg 48%
    13:00 +7°C° 0 mm 2 mps 743 mmHg 45%
    14:00 +7°C° 0 mm 2 mps 743 mmHg 45%
    15:00 +7°C° 0 mm 2 mps 743 mmHg 44%
    16:00 +7°C° 0 mm 2 mps 743 mmHg 44%
    17:00 +7°C° 0 mm 1 mps 743 mmHg 49%
    18:00 +6°C° 0 mm 1 mps 744 mmHg 53%
    19:00 +3°C° 0 mm 0 mps 744 mmHg 57%
    20:00 +4°C° 0 mm 1 mps 744 mmHg 59%
    21:00 +4°C° 0 mm 1 mps 744 mmHg 60%
    22:00 +3°C° 0 mm 1 mps 745 mmHg 61%
    23:00 +3°C° 0 mm 1 mps 745 mmHg 62%

    Tomorrow, 21 March, Thursday

    Time Temperature Precipitation Wind Pressure Humidity
    00:00 +2°C° 0 mm 1 mps 745 mmHg 64%
    01:00 +2°C° 0 mm 1 mps 745 mmHg 65%
    02:00 +2°C° 0 mm 1 mps 745 mmHg 66%
    03:00 +1°C° 0 mm 2 mps 744 mmHg 66%
    04:00 +1°C° 0 mm 2 mps 744 mmHg 67%
    05:00 +1°C° 0 mm 2 mps 744 mmHg 66%
    06:00 +2°C° 0 mm 2 mps 745 mmHg 65%
    07:00 +2°C° 0 mm 2 mps 745 mmHg 64%
    08:00 +3°C° 0 mm 3 mps 745 mmHg 59%
    09:00 +5°C° 0 mm 4 mps 745 mmHg 55%
    10:00 +7°C° 0 mm 4 mps 745 mmHg 51%
    11:00 +8°C° 0 mm 4 mps 745 mmHg 52%
    12:00 +10°C° 0 mm 4 mps 744 mmHg 53%
    13:00 +11°C° 0 mm 4 mps 744 mmHg 54%
    14:00 +11°C° 0 mm 4 mps 744 mmHg 57%
    15:00 +11°C° 0 mm 4 mps 744 mmHg 59%
    16:00 +11°C° 0 mm 4 mps 743 mmHg 61%
    17:00 +10°C° 0 mm 3 mps 743 mmHg 67%
    18:00 +9°C° 0 mm 3 mps 743 mmHg 72%
    19:00 +8°C° 0 mm 2 mps 744 mmHg 78%
    20:00 +8°C° 0 mm 2 mps 744 mmHg 79%
    21:00 +7°C° 0 mm 2 mps 744 mmHg 80%
    22:00 +8°C° 0 mm 1 mps 744 mmHg 81%
    23:00 +8°C° 0 mm 1 mps 744 mmHg 84%

    Day after tomorrow, 22 March, Friday

    Time Temperature Precipitation Wind Pressure Humidity
    00:00 +7°C° 0 mm 2 mps 744 mmHg 86%
    01:00 +6°C° 0 mm 2 mps 744 mmHg 88%
    02:00 +6°C° 0 mm 2 mps 744 mmHg 89%
    03:00 +6°C° 0 mm 2 mps 744 mmHg 90%
    04:00 +6°C° 0 mm 2 mps 743 mmHg 90%
    05:00 +6°C° 0 mm 2 mps 743 mmHg 89%
    06:00 +5°C° 0 mm 3 mps 743 mmHg 88%
    07:00 +5°C° 0 mm 3 mps 743 mmHg 87%
    08:00 +8°C° 0 mm 3 mps 743 mmHg 83%
    09:00 +9°C° 0 mm 3 mps 744 mmHg 79%
    10:00 +11°C° 0 mm 4 mps 744 mmHg 74%
    11:00 +11°C° 0 mm 4 mps 743 mmHg 73%
    12:00 +12°C° 0 mm 3 mps 743 mmHg 71%
    13:00 +13°C° 0 mm 3 mps 743 mmHg 70%
    14:00 +13°C° 0 mm 3 mps 743 mmHg 69%
    15:00 +13°C° 0 mm 3 mps 742 mmHg 69%
    16:00 +13°C° 0 mm 3 mps 742 mmHg 68%
    17:00 +13°C° 0 mm 2 mps 742 mmHg 73%
    18:00 +12°C° 0 mm 1 mps 742 mmHg 78%
    19:00 +10°C° 0 mm 0 mps 742 mmHg 83%
    20:00 +10°C° 0 mm 0 mps 742 mmHg 83%
    21:00 +10°C° 0 mm 0 mps 742 mmHg 83%
    22:00 +10°C° 0 mm 0 mps 743 mmHg 83%
    23:00 +9°C° 0 mm 0 mps 742 mmHg 85%

    23 March, Saturday

    Time Temperature Precipitation Wind Pressure Humidity
    00:00 +10°C° 0 mm 1 mps 742 mmHg 87%
    01:00 +9°C° 0 mm 1 mps 742 mmHg 89%
    02:00 +9°C° 0 mm 1 mps 742 mmHg 89%
    03:00 +8°C° 0 mm 1 mps 742 mmHg 89%
    04:00 +8°C° 0 mm 1 mps 741 mmHg 90%
    05:00 +8°C° 0 mm 1 mps 741 mmHg 87%
    06:00 +8°C° 0 mm 2 mps 741 mmHg 85%
    07:00 +8°C° 0 mm 2 mps 741 mmHg 83%
    08:00 +10°C° 0 mm 2 mps 741 mmHg 74%
    09:00 +12°C° 0 mm 3 mps 741 mmHg 66%
    10:00 +16°C° 0 mm 3 mps 741 mmHg 57%
    11:00 +16°C° 0 mm 3 mps 741 mmHg 54%
    12:00 +17°C° 0 mm 4 mps 740 mmHg 51%
    13:00 +18°C° 0 mm 4 mps 740 mmHg 49%
    14:00 +18°C° 0 mm 4 mps 739 mmHg 49%
    15:00 +18°C° 0 mm 4 mps 739 mmHg 50%
    16:00 +18°C° 0 mm 4 mps 739 mmHg 50%
    17:00 +15°C° 0 mm 4 mps 739 mmHg 56%
    18:00 +13°C° 0 mm 3 mps 739 mmHg 61%
    19:00 +13°C° 0 mm 2 mps 739 mmHg 66%
    20:00 +12°C° 0 mm 2 mps 739 mmHg 69%
    21:00 +10°C° 0 mm 2 mps 739 mmHg 72%
    22:00 +10°C° 0 mm 2 mps 739 mmHg 75%
    23:00 +10°C° 0 mm 2 mps 740 mmHg 78%

    24 March, Sunday

    Time Temperature Precipitation Wind Pressure Humidity
    00:00 +10°C° 0 mm 1 mps 740 mmHg 81%
    01:00 +10°C° 0 mm 1 mps 740 mmHg 83%
    02:00 +9°C° 0 mm 2 mps 740 mmHg 85%
    03:00 +9°C° 0 mm 2 mps 740 mmHg 88%
    04:00 +8°C° 0 mm 2 mps 740 mmHg 90%
    05:00 +8°C° 0.1 mm 2 mps 740 mmHg 86%
    06:00 +7°C° 0.1 mm 3 mps 740 mmHg 83%
    07:00 +7°C° 0.1 mm 3 mps 740 mmHg 79%
    08:00 +7°C° 0 mm 3 mps 740 mmHg 73%
    09:00 +8°C° 0 mm 2 mps 740 mmHg 67%
    10:00 +8°C° 0 mm 2 mps 740 mmHg 61%
    11:00 +9°C° 0 mm 2 mps 740 mmHg 58%
    12:00 +10°C° 0 mm 2 mps 739 mmHg 55%
    13:00 +12°C° 0 mm 2 mps 739 mmHg 53%
    14:00 +12°C° 0 mm 2 mps 738 mmHg 51%
    15:00 +12°C° 0 mm 2 mps 738 mmHg 50%
    16:00 +12°C° 0 mm 2 mps 737 mmHg 48%
    17:00 +10°C° 0 mm 2 mps 737 mmHg 49%
    18:00 +9°C° 0 mm 2 mps 737 mmHg 51%
    19:00 +8°C° 0 mm 2 mps 737 mmHg 52%
    20:00 +8°C° 0 mm 1 mps 736 mmHg 53%
    21:00 +7°C° 0 mm 1 mps 736 mmHg 54%
    22:00 +7°C° 0 mm 1 mps 736 mmHg 55%
    23:00 +7°C° 0 mm 1 mps 735 mmHg 58%

    25 March, Monday

    Time Temperature Precipitation Wind Pressure Humidity
    00:00 +6°C° 0 mm 1 mps 735 mmHg 61%
    01:00 +6°C° 0 mm 1 mps 734 mmHg 64%
    02:00 +6°C° 0 mm 1 mps 734 mmHg 69%
    03:00 +6°C° 0 mm 1 mps 733 mmHg 74%
    04:00 +6°C° 0 mm 1 mps 733 mmHg 79%
    05:00 +6°C° 0 mm 2 mps 732 mmHg 79%
    06:00 +6°C° 0 mm 2 mps 732 mmHg 80%
    07:00 +7°C° 0 mm 2 mps 732 mmHg 81%
    08:00 +8°C° 0 mm 3 mps 732 mmHg 73%
    09:00 +8°C° 0 mm 5 mps 731 mmHg 64%
    10:00 +9°C° 0 mm 6 mps 731 mmHg 56%
    11:00 +10°C° 0 mm 6 mps 730 mmHg 55%
    12:00 +10°C° 0 mm 7 mps 730 mmHg 55%
    13:00 +10°C° 0 mm 8 mps 729 mmHg 54%
    14:00 +10°C° 0 mm 8 mps 728 mmHg 52%
    15:00 +9°C° 0 mm 8 mps 728 mmHg 51%
    16:00 +9°C° 0 mm 8 mps 727 mmHg 49%
    17:00 +8°C° 0 mm 7 mps 727 mmHg 53%
    18:00 +5°C° 0 mm 6 mps 727 mmHg 57%
    19:00 +5°C° 0 mm 5 mps 727 mmHg 61%
    20:00 +3°C° 0.2 mm 5 mps 728 mmHg 62%
    21:00 +3°C° 0.2 mm 6 mps 728 mmHg 62%
    22:00 +2°C° 0.2 mm 6 mps 728 mmHg 63%
    23:00 +1°C° 0 mm 6 mps 728 mmHg 66%
    Show more